[Date Prev][Date Next][Thread Prev][Thread Next] - [Date Index][Thread Index][Author Index]

2 Line ISS Keps 3-3



ISS
1 25544U 98067A   05062.22592593  .00014511  00000-0  12061-3 0  9311
2 25544  51.6451  82.9117 0004271 150.5091 232.7363 15.70427255359020
----
Via the sarex mailing list at AMSAT.ORG courtesy of AMSAT-NA.
To unsubscribe, send "unsubscribe sarex" to Majordomo@amsat.org



AMSAT Top AMSAT Home